Timeline UpdatesTrip UpdatesNews PostsPvt PostsTravel TipsAdmin PostsConv PostsFollowed PostsChat RequestsBlog PostsPNR Posts

Disclaimer
Search
 
 
Wed Sep 24, 2014 05:57:48 ISTHomeTrainsΣChainsAtlasPNRForumGalleryNewsFAQTripsMembersLoginFeedback
No Recent News for this Train
Other Trains in the News **new
Latest...
Monsoon TT Updated W.e.f. 1st July to 30th Sept. 2014
Mon Jun 30, 2014 (04:42PM)
⇐ Return Journey: Train# 16335

16336/Nagercoil - Gandhidham Express

Time-Table HAS CHANGED.
Sep 12 (9:38PM)
Change Departure Station:
Change Arrival Station:
Post a Train Travel TipPost a Train Travel Tip **new
Post a Comment/Question/Picture/VideoPost a Comment/Question/Picture/Video
Pantry/Catering
✓ Pantry Car Avbl
✓ Catering Avbl
RSA - Rake Sharing
06309/06310/16335/16336 has RSA.
Rake/Coach Composition
LOCO-SLR-LD-GEN-S1-S2-S3-S4-S5-S6-PC-S7-S8-SS9-S10-S11-S12-A1-B2-B1-GEN-GEN-SLR; Coach position at Ahmedabad.
Loco
NCJ to SRR RPM/ED WAP4 SRR to GIMB ERS WDM3A
News    PNR    Forum    Time-Table    Availability    Fare Chart    Map    Arr/Dep History    Trips    Gallery    ΣChains    X/O    Timeline    
Travel Time: 31h 35m    37 halts    Distance: 1529 km    Avg Speed: 48 km/hr
Type: Mail/Express
Zone: SR/Southern
Departs @ 15:35 (Avg 8m late)
Platform# ???
  T    
Trivandrum Central/TVC 
Arrives @ 23:10 +1 night (Avg 1h 24m late)
Platform# 6
   W   
Vasai Road/BSR 

37 halts. 207 intermediate Stations between Trivandrum Central and Vasai Road

Show ALL intermediate Stations  Show Old Time-Table

#CodeStation NameX/OArrivesAvgDepartsAvgHaltPFDay#KmSpeedElevZoneAddress
1NCJNagercoil Junction (4)  -14:00+1411-71.15022mSRNagercoil-629002, Tamil Nadu
2TVCTrivandrum Central (5)»  15:30 15:25+715:35+85 10m--10.07812mSRThiruvananthapuram 695001, Kerala
3QLNKollam Junction (6)X  16:25+2016:30+195m2164.66116mSRKollam 0474-2746194, Kerala
4KYJKayamkulam Junction (5)X  17:08 17:10+1317:10 17:12+132m--1105.46111mSRAlappuzha Ph;0479-2442042, Kerala
5CNGRChengannur (3)  17:30 17:32+1517:32 17:34+172m31125.6606mSRPh: 0479-2452340, Kerala
6TRVLTiruvalla (2)  17:40 17:43+2017:42 17:44+202 1m21134.74327mSRPh: 0469-2601314, Kerala
7KTYMKottayam (3)X  18:20+2218:25+305m11160.43815mSRTel: 0481 2563535, Kerala
8ERNErnakulam Town (North) (2)X  20:00+2020:05+195m11220.4569mSRTel: 0484 2395198, Kerala
9AWYAluva (3)  20:23+2220:25+232m31237.26112mSRPh: 0484-2624141, Kerala
10TCRThrissur (4)  21:19+2321:22+233m21291.8346mSRThrissur Tel: 0487 2423150, Kerala
11SRRShoranur Junction (7)  22:20+922:30+2110m--1324.85026mSRShoranur ph.no 0466-2222913, Kerala
12PTBPattambi (2)  22:43 22:44+2222:45+222 1m--1336.35821mSRPattambi, Kerala
13KTUKuttippuram (2)X  23:03 23:04+2323:05+242 1m--1354.85017mSRKuttippuram, Kerala
14TIRTirur (3)  23:23+2023:25+202m--1369.8699mSRTel: 0494 2422240, Kerala
15PGIParappangadi (2)X  23:38 23:39+2323:40+242 1m--1385.96519mSRParappanangadi, Kerala
16FKFerok (2)  23:53 23:54+2623:55+262 1m--1401.12419mSRFeroke, Kerala
17CLTKozhikode Main (4)  00:20+1900:25+205m42411.16111mSRCalicut Tel: 0495 2701234, Kerala
18QLDKoyilandy (3)  00:48 00:49+2000:50+202 1m--2435.47711mSRQuilandi, Kerala
19BDJVadakara (2)  01:07+2001:09+202m22457.37011mSRCalicut / Station Ph No : 0496-2524254, Kerala
20TLYThalassery (2)  01:28+2201:30+222m--2479.4419mSRKannur, Kerala
21CANKannur Main (4)  02:00+1602:05+195m12500.16714mSRKannur Tel: 0497 2705555, Kerala
22KPQKannapuram (2)  02:18+2002:20+192m12514.6649mSRKannur District, Kerala
23PAYPayyanur (3)  02:38+1702:40+162m--2533.8540mSRKannur District, Kerala
24KGQKasaragod (3)  03:38+1003:40+102m--2586.24218mSRTel: 04994 220800, Kerala
25MAJNMangalore Junction (3)X  04:50-105:00+410m32635.23124mSRMangalore 575001, Karnataka
26SLSurathkal (1)  05:40+005:42+62m12655.87022mKRSurathkal, Karnataka
27UDUdupi (2)  06:18+406:20+72m--2697.68018mKRUdupi, Karnataka
28KUDAKundapura (2)X  06:44+1306:46+182m12729.65313mKRKundapura - 576211, Karnataka
29BYNRByndoor Mookambika Road (1)X  07:24-07:26-2m12763.24510mKRUdupi Dist. 576214, Karnataka
30MRDWMurdeshwar (2)  08:06+3108:08+322m--2793.16328mKRMurudeshwara - 581350, Karnataka
31KTKumta (2)X  08:46+4008:48+422m--2833.14520mKRKumta - 581362, Karnataka
32KAWRKarwar (2)  10:02+2310:04+242m--2888.24514mKRKarwar, Karnataka
33CNOCanacona (1)  10:40+2310:42+232m12915.34329mKRPh:-0832-2643644., Goa
34MAOMadgaon Junction (3)  11:30+1411:40+1610m22949.55011mKRMadgaon 403601, Goa
35SWVSawantwadi Road (2)X  13:10+1813:12+372m121023.96540mKRDist. Sindhudurg, Maharashtra
36RNRatnagiri (3)X  15:40+5115:45+575m221184.459129mKRRatnagiri 415612, Maharashtra
37CHIChiplun (2)X  17:02+1:1317:04+1:382m121259.84812mKRChiplun, Maharashtra
38PNVLPanvel Junction (7)  21:20+1:2021:25+1:285m721463.54110mCRPanvel, Maharashtra
39BIRDBhiwandi Road (4)  22:23+1:4722:25+1:472m421501.23626mCRBhiwandi, Maharashtra
40BSRVasai Road (7)•  23:10+1:2423:15+1:255m621528.5607mWRVasai 401202, Maharashtra
41BORBoisar (3)00:06+1:2700:08+1:262m--31579.48417mWRBoisar Tel.no-02525-266626, Maharashtra
42VAPIVapi (3)X  00:58+1:3001:00+1:302m--31649.65627mWRVapi, Gujarat
43BLValsad (3)X  01:28+1:2501:30+1:282m131675.84115mWRValsad, Gujarat
44STSurat (4)O  03:10+5403:22+5212m231744.57519mWRSurat 395001, Gujarat
45AKVAnkleshwar Junction (4)X  04:02+1:0704:04+1:072m131794.57019mWRAnkleshwar, Gujarat
46BRCVadodara Junction (7)X  05:20 05:12+1:0405:22+1:072 10m231874.36736mWRVadodara 390005, Gujarat
47ANNDAnand Junction (6)X  05:54+1:2805:56+1:282m231910.17444mWRAnand, Gujarat
48NDNadiad Junction (4)XO  06:11+2506:13+252m231928.65937mWRNadiad, Gujarat
49MANManinagar (2)  06:56-06:58-2m131971.01150mWRAhmadabad, Gujarat
50ADIAhmedabad Junction (12)  07:15+1:2007:35+1:2020m131974.16351mWRAhmedabad, Gujarat
51VGViramgam Junction (5)  08:37+1:3108:39+1:312m132039.65529mWRViramgam, Gujarat
52DHGDhrangadhra Junction (3)  09:50+1:3209:52+1:332m--32104.27454mWRDhrangadhra, Gujarat
53MALBMaliya Miyana Junction (2)  10:54+2:1810:56+2:182m--32181.1496mWRMalia, Gujarat
54SIOBSamakhiali Junction (3)  11:44+2:0911:46+2:112m132220.36042mWRSamakhiali, Gujarat
55BCOBBhachau (3)  12:02+2:1112:04+2:112m132236.33044mWRBhachau, Gujarat
56GIMBGandhidham Junction (3)  13:20+1:35-332274.1-12mWRGandhidham, Gujarat
Scroll to Top
Scroll to Bottom